G4GVZ-1 Weather Reports


time (UTC)temp
C
wind
direction
speed
KPH
gust
KPH
rain 1hr
cm
rain 24hr
cm
rain mn
cm
humidity
%
barometer
mb
20260510213049 8 81 4.8 14.5 0.00 0.00 0.00 65 1014.0
20260510211548 9 80 6.4 16.1 0.00 0.00 0.00 64 1014.1
20260510210048 9 78 4.8 12.9 0.00 0.00 0.00 62 1014.1
20260510204550 10 78 4.8 12.9 0.00 0.00 0.00 60 1014.1
20260510203050 10 78 3.2 12.9 0.00 0.00 0.00 59 1014.2
20260510201549 10 77 4.8 9.7 0.00 0.00 0.00 59 1014.1
20260510200049 11 77 4.8 12.9 0.00 0.00 0.00 58 1014.1
20260510194549 11 77 3.2 9.7 0.00 0.00 0.00 56 1014.4
20260510193049 11 77 4.8 12.9 0.00 0.00 0.00 54 1014.3
20260510191548 12 78 3.2 12.9 0.00 0.00 0.00 54 1014.3
20260510190050 12 79 6.4 16.1 0.00 0.00 0.00 54 1014.4
20260510184551 12 76 6.4 16.1 0.00 0.00 0.00 52 1014.4
20260510183050 12 79 6.4 19.3 0.00 0.00 0.00 51 1014.4
20260510181550 13 71 6.4 19.3 0.00 0.00 0.00 51 1014.3
20260510180050 13 66 4.8 17.7 0.00 0.00 0.00 49 1014.2
20260510174550 13 64 4.8 17.7 0.00 0.00 0.00 49 1014.3
20260510173049 13 76 8.0 20.9 0.00 0.00 0.00 48 1014.3
20260510173002 21 95 3.2 16.1 0.00 0.00 0.00 44 1016.5
20260510173000 21 96 3.2 11.3 0.00 0.00 0.00 44 1016.5
20260510172958 20 99 4.8 14.5 0.00 0.00 0.00 46 1016.6
20260510171549 13 63 3.2 22.5 0.00 0.00 0.00 50 1014.6
20260510170049 14 60 6.4 20.9 0.00 0.00 0.00 48 1014.8
20260510164551 14 88 8.0 19.3 0.00 0.00 0.00 50 1014.8
20260510163051 13 56 6.4 20.9 0.00 0.00 0.00 50 1015.0
20260510161550 14 56 6.4 20.9 0.00 0.00 0.00 49 1015.1
20260510160050 14 79 8.0 24.1 0.00 0.00 0.00 49 1015.3
20260510154550 15 77 8.0 24.1 0.00 0.00 0.00 50 1015.4
20260510153050 14 71 6.4 22.5 0.00 0.00 0.00 51 1015.5
20260510151550 14 71 6.4 20.9 0.00 0.00 0.00 52 1015.7
20260510150051 14 77 9.7 24.1 0.00 0.00 0.00 51 1015.9
20260510144552 14 94 9.7 25.7 0.00 0.00 0.00 53 1016.0
20260510143052 14 84 8.0 20.9 0.00 0.00 0.00 53 1016.3
20260510141551 14 50 6.4 22.5 0.00 0.00 0.00 54 1016.4
20260510140051 14 78 4.8 19.3 0.00 0.00 0.00 56 1016.5
20260510134551 14 83 8.0 22.5 0.00 0.00 0.00 58 1016.6
20260510133051 13 85 11.3 29.0 0.00 0.00 0.00 59 1016.7
20260510131551 13 63 6.4 24.1 0.00 0.00 0.00 59 1016.8
20260510130050 12 62 6.4 22.5 0.00 0.00 0.00 63 1016.8
20260510124550 12 85 12.9 29.0 0.00 0.00 0.00 63 1017.0
20260510123050 12 54 6.4 22.5 0.00 0.00 0.00 65 1017.2
20260510121552 12 73 6.4 22.5 0.00 0.00 0.00 66 1017.4
20260510120052 11 65 6.4 19.3 0.00 0.00 0.00 68 1017.5
20260510114552 11 45 6.4 19.3 0.00 0.00 0.00 69 1017.7
20260510113051 11 42 4.8 22.5 0.00 0.00 0.00 70 1017.7
20260510111551 12 59 8.0 24.1 0.00 0.00 0.00 68 1018.0
20260510110051 12 70 11.3 24.1 0.00 0.00 0.00 70 1018.2
20260510104548 11 49 6.4 19.3 0.00 0.00 0.00 72 1018.2
20260510103048 11 50 4.8 17.7 0.00 0.00 0.00 73 1018.4
20260510101548 10 52 6.4 20.9 0.00 0.00 0.00 75 1018.5
20260510100048 10 53 3.2 17.7 0.00 0.00 0.00 75 1018.5
20260510094547 10 51 6.4 22.5 0.00 0.00 0.00 77 1018.6
20260510093047 10 49 8.0 20.9 0.00 0.00 0.00 78 1018.6
20260510091549 10 57 3.2 17.7 0.00 0.00 0.00 79 1018.8
20260510090049 9 59 6.4 19.3 0.00 0.00 0.00 79 1018.8
20260510084549 9 61 8.0 22.5 0.00 0.00 0.00 79 1018.8
20260510083048 9 65 8.0 22.5 0.00 0.00 0.00 80 1018.9
20260510081548 9 54 6.4 19.3 0.00 0.00 0.00 82 1018.9
20260510080048 8 55 8.0 22.5 0.00 0.00 0.00 82 1018.9
20260510074548 9 51 4.8 19.3 0.00 0.00 0.00 82 1018.8
20260510073048 9 63 4.8 19.3 0.00 0.00 0.00 82 1018.8
20260510071547 9 62 6.4 20.9 0.00 0.00 0.00 82 1018.9
20260510070047 9 49 3.2 9.7 0.00 0.00 0.00 82 1018.8
20260510064548 9 50 4.8 17.7 0.00 0.00 0.00 82 1018.7
20260510063050 9 56 4.8 19.3 0.00 0.00 0.00 84 1018.6
20260510061550 9 49 4.8 17.7 0.00 0.00 0.00 84 1018.5
20260510060051 9 30 3.2 16.1 0.00 0.00 0.00 84 1018.5
20260510054551 9 35 3.2 16.1 0.00 0.00 0.00 84 1018.3
20260510053049 9 36 3.2 22.5 0.00 0.00 0.00 83 1018.4
20260510051548 9 50 4.8 16.1 0.00 0.00 0.00 83 1018.4
20260510050050 10 56 3.2 11.3 0.00 0.00 0.00 83 1018.4
20260510044550 10 54 3.2 14.5 0.00 0.00 0.00 83 1018.5
20260510043050 9 47 3.2 14.5 0.00 0.00 0.00 83 1018.5
20260510041549 9 61 4.8 19.3 0.00 0.00 0.00 83 1018.5
20260510040049 9 49 3.2 14.5 0.00 0.00 0.00 84 1018.7
20260510034549 9 45 3.2 14.5 0.00 0.00 0.00 84 1018.6
20260510033049 9 45 3.2 14.5 0.00 0.00 0.00 84 1018.8
20260510031549 9 52 3.2 17.7 0.00 0.00 0.00 84 1019.0
20260510030048 9 58 3.2 16.1 0.00 0.00 0.00 84 1018.9
20260510024551 9 66 3.2 16.1 0.00 0.00 0.00 84 1019.0
20260510023051 9 55 4.8 14.5 0.00 0.00 0.00 83 1019.0
20260510021551 9 61 6.4 20.9 0.00 0.00 0.00 83 1019.0
20260510020051 9 68 6.4 22.5 0.00 0.00 0.00 82 1019.0
20260510014550 9 91 11.3 27.4 0.00 0.00 0.00 82 1018.9
20260510013050 9 79 12.9 25.7 0.00 0.00 0.00 83 1018.9
20260510011935 9 68 9.7 27.4 0.00 0.00 0.00 83 1018.9
20260510011550 9 68 9.7 27.4 0.00 0.00 0.00 83 1018.9
20260510010052 9 59 8.0 22.5 0.00 0.00 0.00 83 1019.3
20260510004552 9 59 8.0 24.1 0.00 0.00 0.00 84 1019.1
20260510003845 10 65 4.8 22.5 0.00 0.00 0.00 85 1019.1
20260510003051 10 65 4.8 22.5 0.00 0.00 0.00 85 1019.1
20260510001551 10 37 4.8 19.3 0.00 0.00 0.00 85 1018.8
20260510000051 10 54 4.8 20.9 0.00 0.00 0.00 84 1018.7
20260509234551 10 54 6.4 20.9 0.00 0.00 0.00 84 1018.5
20260509233051 10 62 8.0 20.9 0.00 0.00 0.00 83 1018.6
20260509231827 10 70 8.0 24.1 0.00 0.00 0.00 83 1018.7
20260509231550 10 70 8.0 24.1 0.00 0.00 0.00 83 1018.7
20260509230050 11 58 8.0 24.1 0.00 0.00 0.00 82 1018.6
20260509224552 11 51 6.4 20.9 0.00 0.00 0.00 81 1018.6
20260509223052 11 17 3.2 20.9 0.00 0.00 0.00 79 1018.6
20260509221552 11 350 3.2 16.1 0.00 0.00 0.00 79 1018.7
20260509220052 12 353 4.8 22.5 0.00 0.00 0.00 78 1018.5
20260509214552 12 3 4.8 17.7 0.00 0.00 0.00 77 1018.4